Farmington, NM

11:40 AM MST on November 23, 2017 (GMT -0700)
Four Corners Regional

Weather History for KFMN - May, 2013

Change the Weather History Date:

Thursday, May 16, 2013

  Actual Average Record
Temperature  
Mean Temperature 64 °F -  
Max Temperature 84 °F 76 °F 87 °F (2001)
Min Temperature 43 °F 42 °F 34 °F (1983)
Degree Days  
Heating Degree Days 2    
Growing Degree Days 14 (Base 50)    
Moisture  
Dew Point 16 °F    
Average Humidity 13    
Maximum Humidity 30    
Minimum Humidity 4    
Precipitation  
Precipitation 0.00 in - - ()
Sea Level Pressure  
Sea Level Pressure 29.81 in    
Wind  
Wind Speed 7 mph (West)    
Max Wind Speed 17 mph    
Max Gust Speed 26 mph    
Visibility 10 miles    
Events      
Averages and records for this station are not official NWS values.
T = Trace of Precipitation, MM = Missing Value Source: NWS Daily Summary

Daily Weather History Graph

Daily Weather History Graph

Search for Another Location

Airport or City:

Trip Planner

Search our weather history database for the weather conditions in past years. The results will help you decide how hot, cold, wet, or windy it might be!

Date:

Astronomy

May. 16, 2013 Rise Set
Actual Time 6:04 AM MDT 8:14 PM MDT
Civil Twilight 5:35 AM MDT 8:43 PM MDT
Nautical Twilight 5:00 AM MDT 9:19 PM MDT
Astronomical Twilight 4:21 AM MDT 9:57 PM MDT
Moon 11:37 AM MDT (5/16) 12:39 AM MDT (5/16)
Length of Visible Light 15h 08m
Length of Day
14h 10m
Waxing Crescent, 36% of the Moon is Illuminated
May 16
Waxing Crescent
May 17
First Quarter
May 24
Full
May 31
Last Quarter
Jun 8
New

Hourly Weather History & Observations

Time (MDT) Temp. Windchill Dew Point Humidity Pressure Visibility Wind Dir Wind Speed Gust Speed Precip Events Conditions
12:53 AM 59.0 °F - 12.0 °F 16% 29.81 in 10.0 mi West 5.8 mph - N/A   Clear
1:53 AM 60.1 °F - 12.9 °F 16% 29.81 in 10.0 mi WSW 10.4 mph - N/A   Clear
2:53 AM 60.1 °F - 12.9 °F 16% 29.80 in 10.0 mi SW 5.8 mph - N/A   Clear
3:53 AM 55.9 °F - 15.1 °F 20% 29.82 in 10.0 mi WNW 3.5 mph - N/A   Clear
4:53 AM 48.0 °F - 12.9 °F 24% 29.86 in 10.0 mi NNE 4.6 mph - N/A   Clear
5:53 AM 44.1 °F 41.5 °F 14.0 °F 30% 29.88 in 10.0 mi NNE 4.6 mph - N/A   Clear
6:53 AM 46.9 °F - 16.0 °F 29% 29.89 in 10.0 mi North 5.8 mph - N/A   Clear
7:53 AM 57.0 °F - 21.0 °F 25% 29.90 in 10.0 mi East 8.1 mph - N/A   Clear
8:53 AM 63.0 °F - 21.0 °F 20% 29.90 in 10.0 mi East 6.9 mph - N/A   Clear
9:53 AM 66.9 °F - 19.0 °F 16% 29.90 in 10.0 mi SE 4.6 mph - N/A   Clear
10:53 AM 72.0 °F - 18.0 °F 13% 29.88 in 10.0 mi Variable 4.6 mph - N/A   Clear
11:53 AM 75.9 °F - 21.0 °F 13% 29.86 in 10.0 mi Variable 3.5 mph - N/A   Clear
12:53 PM 79.0 °F - 23.0 °F 13% 29.84 in 10.0 mi SSW 8.1 mph - N/A   Clear
1:53 PM 80.1 °F - 21.0 °F 11% 29.81 in 10.0 mi Variable 4.6 mph - N/A   Clear
2:53 PM 82.9 °F - 18.0 °F 9% 29.77 in 10.0 mi WNW 9.2 mph - N/A   Clear
3:53 PM 82.9 °F - 17.1 °F 9% 29.75 in 10.0 mi Variable 5.8 mph - N/A   Clear
4:53 PM 82.9 °F - 15.1 °F 8% 29.75 in 10.0 mi West 9.2 mph - N/A   Clear
5:53 PM 84.0 °F - 12.9 °F 7% 29.75 in 10.0 mi West 12.7 mph 26.5 mph N/A   Clear
6:53 PM 81.0 °F - 10.0 °F 7% 29.74 in 10.0 mi WSW 17.3 mph 21.9 mph N/A   Clear
7:53 PM 75.0 °F - 12.9 °F 9% 29.74 in 10.0 mi West 4.6 mph - N/A   Clear
8:53 PM 70.0 °F - 15.1 °F 12% 29.75 in 10.0 mi WSW 9.2 mph - N/A   Clear
9:53 PM 68.0 °F - 14.0 °F 12% 29.76 in 10.0 mi West 8.1 mph - N/A   Clear
10:53 PM 66.9 °F - 14.0 °F 13% 29.77 in 10.0 mi West 10.4 mph - N/A   Clear
11:53 PM 64.9 °F - 15.1 °F 15% 29.77 in 10.0 mi West 10.4 mph - N/A   Clear